This is the latest recevied weather packets stored in our database for station/object EA7HQL-10. If no packets are shown the sender has not sent any weather packets the latest 1 day(s).
| Time | Temp. | Humidity | Pressure | Rain* | Wind** | Luminosity | Snow |
|---|---|---|---|---|---|---|---|
| 1778049995 | 18.89° C | 45% | 1008.1 hPa | 0 mm | 3.13 m/s, 12° | - | - |
| 1778049735 | 19.44° C | 46% | 1008.2 hPa | 0 mm | 2.24 m/s, 22° | - | - |
| 1778049455 | 18.89° C | 47% | 1008 hPa | 0 mm | 2.24 m/s, 351° | - | - |
| 1778049189 | 18.89° C | 47% | 1008.1 hPa | 0 mm | 2.68 m/s, 312° | - | - |
| 1778048928 | 18.89° C | 47% | 1008 hPa | 0 mm | 1.79 m/s, 284° | - | - |
| 1778048670 | 18.89° C | 47% | 1008.1 hPa | 0 mm | 1.79 m/s, 197° | - | - |
| 1778048380 | 18.89° C | 48% | 1008.1 hPa | 0 mm | 3.13 m/s, 316° | - | - |
| 1778048110 | 18.89° C | 48% | 1008.1 hPa | 0 mm | 1.79 m/s, 144° | - | - |
| 1778047855 | 18.89° C | 48% | 1008.2 hPa | 0 mm | 2.68 m/s, 285° | - | - |
| 1778047605 | 18.89° C | 48% | 1008 hPa | 0 mm | 1.79 m/s, 235° | - | - |
| 1778047336 | 18.33° C | 48% | 1008.1 hPa | 0 mm | 2.68 m/s, 286° | - | - |
| 1778047090 | 18.33° C | 48% | 1008.1 hPa | 0 mm | 3.13 m/s, 289° | - | - |
| 1778046800 | 18.33° C | 49% | 1008.2 hPa | 0 mm | 1.79 m/s, 352° | - | - |
| 1778046555 | 18.33° C | 49% | 1008.1 hPa | 0 mm | 2.24 m/s, 202° | - | - |
| 1778046265 | 17.78° C | 49% | 1008 hPa | 0 mm | 2.68 m/s, 246° | - | - |
| 1778045985 | 18.33° C | 50% | 1008 hPa | 0 mm | 2.24 m/s, 324° | - | - |
| 1778045690 | 17.78° C | 50% | 1007.9 hPa | 0 mm | 2.68 m/s, 298° | - | - |
| 1778045430 | 17.78° C | 50% | 1008 hPa | 0 mm | 2.24 m/s, 269° | - | - |
| 1778045175 | 17.78° C | 50% | 1007.9 hPa | 0 mm | 2.24 m/s, 283° | - | - |
| 1778044922 | 17.78° C | 51% | 1007.9 hPa | 0 mm | 0.89 m/s, 317° | - | - |
| 1778044680 | 17.78° C | 50% | 1008 hPa | 0 mm | 0.89 m/s, 268° | - | - |
| 1778044420 | 18.33° C | 49% | 1008 hPa | 0 mm | 2.68 m/s, 294° | - | - |
| 1778044145 | 17.78° C | 50% | 1008 hPa | 0 mm | 1.79 m/s, 325° | - | - |
| 1778043852 | 18.33° C | 50% | 1007.9 hPa | 0 mm | 3.58 m/s, 233° | - | - |
| 1778043580 | 17.78° C | 50% | 1007.9 hPa | 0 mm | 1.79 m/s, 238° | - | - |
* Rain latest hour (hover to see other rain measurements)
** Current wind speed in m/s (hover to see current wind gust speed)